Date String (YYYY-MM-DD hh:mm:ss) UTC,Instrument flags,Ambient pressure (hPa),Sample flow (lpm),Bypass flow (lpm),Sample temperature (°C),Ambient temperature (°C),ASC tube jacket temperature (°C),LED temperature (°C),Box temperature (°C),Sample RH (%),Span deviation,Mass concentration (μg/m³),Mass concentration (μg/m³),Mass concentration (μg/m³)
DateTimeUTC,F1_M11,P_M11,Q1_M11,Q2_M11,T1_M11,T2_M11,T3_M11,T4_M11,T5_M11,U1_M11,ZSPAN_M11,X0_M11,X2_M11,X1_M11
2022-06-26 09:00:00,,0837.8,4.99,0.00,30.3,29.3,00.0,39.1,32.1,27.9,0000.0,0007.98,0003.57,0002.75
2022-06-26 09:01:00,,0837.8,4.99,0.00,30.3,29.3,00.0,39.1,32.1,27.7,0000.0,0008.14,0003.57,0002.74
2022-06-26 09:02:00,,0837.8,5.01,0.00,30.3,29.3,00.0,39.1,32.1,25.1,0000.0,0008.26,0003.58,0002.69
2022-06-26 09:03:00,,0837.8,5.01,0.00,30.3,29.3,00.0,39.1,32.1,24.9,0000.0,0008.21,0003.59,0002.66
2022-06-26 09:04:00,,0837.8,4.99,0.00,30.3,29.3,00.0,39.1,32.1,26.3,0000.0,0008.15,0003.59,0002.66
2022-06-26 09:05:00,,0837.8,5.02,0.00,30.3,29.3,00.0,39.1,32.2,26.3,0000.0,0007.63,0003.57,0002.64
2022-06-26 09:06:00,,0837.8,5.01,0.00,30.3,28.8,00.0,39.1,32.0,25.8,0000.0,0007.63,0003.58,0002.63
2022-06-26 09:07:00,,0837.8,4.99,0.00,30.2,28.0,00.0,39.0,31.8,25.8,0000.0,0007.61,0003.56,0002.62
2022-06-26 09:08:00,,0837.8,5.00,0.00,30.1,27.7,00.0,38.9,31.7,26.0,0000.0,0007.68,0003.57,0002.60
2022-06-26 09:09:00,,0837.8,5.01,0.00,30.0,27.6,00.0,38.9,31.6,26.3,0000.0,0007.71,0003.58,0002.58
2022-06-26 09:10:00,,0837.8,5.00,0.00,30.0,27.6,00.0,38.9,31.6,27.0,0000.0,0007.63,0003.54,0002.54
2022-06-26 09:11:00,,0837.8,4.98,0.00,29.9,27.8,00.0,38.9,31.6,27.2,0000.0,0007.26,0003.53,0002.53
2022-06-26 09:12:00,,0837.8,5.00,0.00,29.9,27.9,00.0,38.8,31.6,27.1,0000.0,0006.86,0003.52,0002.51
2022-06-26 09:13:00,,0837.8,5.00,0.00,29.9,28.0,00.0,38.8,31.6,27.1,0000.0,0006.99,0003.54,0002.53
2022-06-26 09:14:00,,0837.8,5.00,0.00,29.9,28.1,00.0,38.8,31.6,27.1,0000.0,0007.85,0003.53,0002.53
2022-06-26 09:15:00,,0837.8,5.00,0.00,29.8,28.2,00.0,38.8,31.6,27.0,0000.0,0007.94,0003.45,0002.49
2022-06-26 09:16:00,,0837.8,5.00,0.00,29.8,28.3,00.0,38.8,31.6,27.2,0000.0,0008.08,0003.46,0002.49
2022-06-26 09:17:00,,0837.8,5.01,0.00,29.8,28.4,00.0,38.8,31.7,27.3,0000.0,0008.19,0003.48,0002.49
2022-06-26 09:18:00,,0837.8,5.00,0.00,29.9,28.5,00.0,38.8,31.7,27.5,0000.0,0008.22,0003.49,0002.49
2022-06-26 09:19:00,,0837.8,5.00,0.00,29.9,28.6,00.0,38.8,31.7,27.6,0000.0,0008.14,0003.49,0002.51
2022-06-26 09:20:00,,0837.8,5.00,0.00,29.9,28.6,00.0,38.8,31.7,27.7,0000.0,0008.17,0003.49,0002.51
2022-06-26 09:21:00,,0837.8,4.99,0.00,29.9,28.7,00.0,38.8,31.7,27.5,0000.0,0008.13,0003.48,0002.53
2022-06-26 09:22:00,,0837.8,5.02,0.00,29.9,28.7,00.0,38.8,31.7,26.6,0000.0,0008.07,0003.46,0002.53
2022-06-26 09:23:00,,0837.8,5.00,0.00,29.9,28.7,00.0,38.8,31.8,26.0,0000.0,0008.04,0003.43,0002.52
2022-06-26 09:24:00,,0837.9,4.99,0.00,29.9,28.8,00.0,38.8,31.7,26.5,0000.0,0007.86,0003.37,0002.49
2022-06-26 09:25:00,,0837.8,5.00,0.00,29.9,28.8,00.0,38.8,31.7,26.7,0000.0,0007.04,0003.37,0002.50
2022-06-26 09:26:00,,0837.9,5.00,0.00,29.9,28.8,00.0,38.8,31.8,26.6,0000.0,0006.78,0003.43,0002.51
2022-06-26 09:27:00,,0837.9,5.00,0.00,29.9,28.9,00.0,38.8,31.8,26.5,0000.0,0006.54,0003.44,0002.52
2022-06-26 09:28:00,,0837.9,5.00,0.00,30.0,28.9,00.0,38.8,31.8,26.0,0000.0,0006.61,0003.45,0002.52
2022-06-26 09:29:00,,0837.8,5.00,0.00,30.0,28.9,00.0,38.8,31.8,25.8,0000.0,0006.74,0003.45,0002.52
2022-06-26 09:30:00,,0837.8,5.00,0.00,30.0,28.9,00.0,38.8,31.9,25.5,0000.0,0006.82,0003.46,0002.51
2022-06-26 09:31:00,,0837.7,4.99,0.00,30.0,28.9,00.0,38.8,31.9,25.4,0000.0,0006.70,0003.43,0002.49
2022-06-26 09:32:00,,0837.8,5.00,0.00,30.0,29.0,00.0,38.8,31.9,25.4,0000.0,0006.66,0003.40,0002.46
2022-06-26 09:33:00,,0837.8,5.00,0.00,30.0,29.0,00.0,38.8,31.9,25.4,0000.0,0006.61,0003.37,0002.45
2022-06-26 09:34:00,,0837.9,5.01,0.00,30.0,29.0,00.0,38.9,31.9,25.2,0000.0,0006.41,0003.35,0002.44
2022-06-26 09:35:00,,0837.8,5.00,0.00,30.0,29.0,00.0,38.9,31.9,24.9,0000.0,0006.76,0003.38,0002.44
2022-06-26 09:36:00,,0837.8,5.00,0.00,30.0,29.0,00.0,38.9,31.9,24.7,0000.0,0006.88,0003.39,0002.42
2022-06-26 09:37:00,,0837.8,5.00,0.00,30.1,29.0,00.0,38.9,31.9,24.2,0000.0,0006.85,0003.37,0002.41
2022-06-26 09:38:00,,0837.8,5.00,0.00,30.1,29.0,00.0,38.9,31.9,24.2,0000.0,0006.81,0003.36,0002.39
2022-06-26 09:39:00,,0837.8,5.01,0.00,30.1,29.0,00.0,38.9,31.9,24.0,0000.0,0007.20,0003.32,0002.35
2022-06-26 09:40:00,,0837.8,5.01,0.00,30.1,29.0,00.0,38.9,31.9,23.6,0000.0,0007.65,0003.28,0002.33
2022-06-26 09:41:00,,0837.8,5.00,0.00,30.1,29.1,00.0,38.9,32.0,23.4,0000.0,0007.70,0003.28,0002.32
2022-06-26 09:42:00,,0837.8,4.98,0.00,30.1,29.1,00.0,38.9,32.0,23.5,0000.0,0007.67,0003.27,0002.32
2022-06-26 09:43:00,,0837.8,5.00,0.00,30.1,29.1,00.0,38.9,32.0,23.6,0000.0,0008.06,0003.29,0002.32
2022-06-26 09:44:00,,0837.8,5.00,0.00,30.1,29.1,00.0,38.9,32.0,23.3,0000.0,0008.88,0003.35,0002.31
2022-06-26 09:45:00,,0837.8,5.00,0.00,30.1,29.1,00.0,38.9,32.0,23.0,0000.0,0009.22,0003.38,0002.31
2022-06-26 09:46:00,,0837.8,5.00,0.00,30.1,29.1,00.0,39.0,32.0,23.3,0000.0,0009.99,0003.34,0002.31
2022-06-26 09:47:00,,0837.8,5.01,0.00,30.1,29.1,00.0,39.0,32.0,23.7,0000.0,0010.12,0003.36,0002.31
2022-06-26 09:48:00,,0837.8,5.01,0.00,30.1,29.1,00.0,39.0,32.0,23.8,0000.0,0010.24,0003.39,0002.31
2022-06-26 09:49:00,,0837.9,5.00,0.00,30.1,29.1,00.0,39.0,32.0,24.1,0000.0,0010.76,0003.45,0002.32
2022-06-26 09:50:00,,0837.8,4.99,0.00,30.2,29.1,00.0,39.0,32.0,24.0,0000.0,0011.05,0003.49,0002.34
2022-06-26 09:51:00,,0837.8,5.01,0.00,30.2,29.1,00.0,39.0,32.0,23.5,0000.0,0010.68,0003.54,0002.35
2022-06-26 09:52:00,,0837.9,5.00,0.00,30.2,29.1,00.0,39.0,32.0,23.5,0000.0,0010.80,0003.53,0002.35
2022-06-26 09:53:00,,0837.9,4.99,0.00,30.2,29.1,00.0,39.0,32.0,23.7,0000.0,0011.27,0003.52,0002.36
2022-06-26 09:54:00,,0837.9,5.00,0.00,30.2,29.1,00.0,39.0,32.0,23.8,0000.0,0010.92,0003.52,0002.38
2022-06-26 09:55:00,,0837.9,5.01,0.00,30.2,29.1,00.0,39.0,32.0,23.8,0000.0,0010.19,0003.51,0002.38
2022-06-26 09:56:00,,0837.8,5.01,0.00,30.2,29.1,00.0,39.0,32.0,23.8,0000.0,0010.09,0003.52,0002.38
2022-06-26 09:57:00,,0837.8,5.01,0.00,30.2,29.1,00.0,39.0,32.0,23.6,0000.0,0009.20,0003.56,0002.40
2022-06-26 09:58:00,,0837.8,4.99,0.00,30.2,29.1,00.0,39.0,32.0,23.2,0000.0,0009.21,0003.52,0002.40
2022-06-26 09:59:00,,0837.8,5.01,0.00,30.2,29.1,00.0,39.0,32.0,22.6,0000.0,0009.20,0003.52,0002.40
